Simultaneous Nadir Overpasses (SNOs) Predictions

Prediction of SNOs between GOES-17 and NOAA-21 Satellite Orbit:

Table of predicted SNOs for the next 14.0 days since TLE Epoch: 3/16/2024
Index Date Time (GOES-17) GOES-17 Lat,Lon NOAA-21 Lat,Lon Distance(km) Time Diff (sec)
1 03/17/2024 08:38:12 -0.01,-104.70 0.77,-108.15 393.78 80
2 03/18/2024 08:16:49 0.00,-104.70 -0.24,-103.63 122.11 80
3 03/19/2024 20:38:46 -0.02,-104.67 -1.00,-108.92 485.82 80
4 03/20/2024 20:22:43 -0.02,-104.67 0.02,-104.40 30.25 80
5 03/23/2024 08:25:49 0.01,-104.70 0.13,-105.14 51.55 80
6 03/24/2024 08:04:25 0.00,-104.70 -0.89,-100.62 464.72 80
7 03/25/2024 20:26:23 -0.00,-104.67 -0.27,-105.93 142.98 80
8 03/26/2024 20:10:20 0.00,-104.68 0.76,-101.40 373.35 80
9 03/28/2024 08:32:09 -0.01,-104.71 0.41,-106.68 224.17 80
10 03/29/2024 08:10:45 -0.01,-104.71 -0.56,-102.14 291.83 80
